DW7603 Weather Reports


time (UTC)temp
C
wind
direction
speed
KPH
gust
KPH
rain 1hr
cm
rain 24hr
cm
rain mn
cm
humidity
%
barometer
mb
20260508074530 13 81 4.8 9.7 0.00 0.00 0.00 17 1010.4
20260508073004 13 5 4.8 12.9 0.00 0.00 0.00 17 1010.6
20260508071549 13 34 4.8 12.9 0.00 0.00 0.00 17 1010.6
20260508070030 13 33 3.2 8.0 0.00 0.00 0.00 16 1010.7
20260508064531 13 10 4.8 12.9 0.00 0.00 0.00 16 1010.8
20260508063047 13 17 4.8 12.9 0.00 0.00 0.00 16 1010.7
20260508061532 13 11 0.0 4.8 0.00 0.00 0.00 16 1010.6
20260508060015 13 289 1.6 6.4 0.00 0.00 0.00 16 1010.6
20260508054554 13 350 1.6 4.8 0.00 0.00 0.00 16 1010.7
20260508053029 12 304 3.2 6.4 0.00 0.00 0.00 16 1010.7
20260508051513 13 309 1.6 12.9 0.00 0.00 0.00 15 1010.8
20260508050051 13 295 8.0 12.9 0.00 0.00 0.00 15 1010.8
20260508044531 15 313 6.4 14.5 0.00 0.00 0.00 15 1010.6
20260508043012 15 11 8.0 17.7 0.00 0.00 0.00 14 1010.7
20260508041551 15 355 6.4 16.1 0.00 0.00 0.00 13 1010.8
20260508040027 16 341 3.2 9.7 0.00 0.00 0.00 12 1011.0
20260508034510 16 5 6.4 14.5 0.00 0.00 0.00 11 1011.0
20260508033050 17 346 8.0 14.5 0.00 0.00 0.00 10 1010.8
20260508031530 17 13 8.0 16.1 0.00 0.00 0.00 10 1010.6
20260508030011 17 360 6.4 12.9 0.00 0.00 0.00 10 1010.4
20260508024555 18 11 6.4 12.9 0.00 0.00 0.00 9 1010.2
20260508023036 18 350 8.0 14.5 0.00 0.00 0.00 8 1010.1
20260508021511 19 52 6.4 14.5 0.00 0.00 0.00 7 1009.9
20260508020051 20 32 6.4 14.5 0.00 0.00 0.00 7 1009.7
20260508014533 21 25 11.3 22.5 0.00 0.00 0.00 6 1009.8
20260508013013 21 47 12.9 22.5 0.00 0.00 0.00 6 1009.5
20260508011610 22 39 11.3 25.7 0.00 0.00 0.00 6 1009.3
20260508010034 22 360 11.3 22.5 0.00 0.00 0.00 6 1009.4
20260508004515 23 36 6.4 20.9 0.00 0.00 0.00 6 1009.3
20260508003108 23 40 9.7 20.9 0.00 0.00 0.00 6 1009.3
20260508001540 23 78 6.4 25.7 0.00 0.00 0.00 6 1009.4
20260508000016 23 9 9.7 20.9 0.00 0.00 0.00 6 1009.4
20260507234558 23 15 0.0 24.1 0.00 0.00 0.00 7 1009.3
20260507233039 23 57 16.1 29.0 0.00 0.00 0.00 7 1009.5
20260507231517 24 291 4.8 11.3 0.00 0.00 0.00 7 1009.7
20260507230059 24 292 6.4 17.7 0.00 0.00 0.00 7 1010.1
20260507230003 24 275 6.4 17.7 0.00 0.00 0.00 7 1010.1
20260507224547 23 69 0.0 14.5 0.00 0.00 0.00 7 1010.3
20260507223022 24 311 8.0 14.5 0.00 0.00 0.00 7 1010.6
20260507221559 24 279 0.0 11.3 0.00 0.00 0.00 7 1010.7
20260507220040 23 242 6.4 22.5 0.00 0.00 0.00 7 1011.0
20260507214530 23 167 1.6 20.9 0.00 0.00 0.00 7 1011.3
20260507213008 23 98 0.0 19.3 0.00 0.00 0.00 7 1011.5
20260507211549 23 70 4.8 17.7 0.00 0.00 0.00 7 1011.9
20260507210024 23 259 8.0 16.1 0.00 0.00 0.00 8 1012.4
20260507204505 22 26 8.0 19.3 0.00 0.00 0.00 9 1012.7
20260507203042 22 271 9.7 19.3 0.00 0.00 0.00 10 1012.8
20260507201524 22 268 1.6 17.7 0.00 0.00 0.00 11 1013.3
20260507200017 22 122 0.0 11.3 0.00 0.00 0.00 10 1013.3
20260507194541 22 80 1.6 11.3 0.00 0.00 0.00 10 1013.7
20260507193026 22 215 0.0 16.1 0.00 0.00 0.00 11 1014.0
20260507191559 21 105 0.0 22.5 0.00 0.00 0.00 12 1014.3
20260507190041 21 258 0.0 8.0 0.00 0.00 0.00 13 1014.6
20260507184512 20 167 1.6 17.7 0.00 0.00 0.00 13 1015.0
20260507183058 20 277 8.0 16.1 0.00 0.00 0.00 14 1015.2
20260507181534 20 290 3.2 9.7 0.00 0.00 0.00 16 1015.4
20260507180016 19 60 0.0 9.7 0.00 0.00 0.00 18 1015.9
20260507174557 18 311 6.4 12.9 0.00 0.00 0.00 18 1016.1
20260507173034 18 194 4.8 11.3 0.00 0.00 0.00 20 1016.3
20260507171511 16 315 3.2 14.5 0.00 0.00 0.00 23 1016.5
20260507170051 16 146 0.0 8.0 0.00 0.00 0.00 24 1016.7
20260507164532 15 74 4.8 16.1 0.00 0.00 0.00 26 1016.8
20260507163010 13 108 9.7 19.3 0.00 0.00 0.00 29 1017.2
20260507161548 13 90 4.8 16.1 0.00 0.00 0.00 31 1017.2
20260507160034 12 116 4.8 22.5 0.00 0.00 0.00 32 1017.4
20260507154504 12 69 1.6 12.9 0.00 0.00 0.00 35 1017.4
20260507153050 11 100 4.8 14.5 0.00 0.00 0.00 38 1017.5
20260507151520 9 101 4.8 16.1 0.00 0.00 0.00 44 1017.5
20260507150058 8 102 9.7 20.9 0.00 0.00 0.00 48 1017.5
20260507144538 7 107 16.1 24.1 0.00 0.00 0.00 50 1017.6
20260507143020 7 103 9.7 20.9 0.00 0.00 0.00 52 1017.8
20260507141605 6 113 9.7 22.5 0.00 0.00 0.00 52 1017.7
20260507141508 6 67 9.7 22.5 0.00 0.00 0.00 53 1017.7
20260507140104 6 130 11.3 22.5 0.00 0.00 0.00 53 1017.8
20260507134526 5 69 8.0 16.1 0.00 0.00 0.00 52 1017.9
20260507133006 5 76 6.4 12.9 0.00 0.00 0.00 49 1017.8
20260507131600 3 76 6.4 16.1 0.00 0.00 0.00 49 1017.6
20260507130027 3 76 6.4 16.1 0.00 0.00 0.00 54 1017.8
20260507124510 3 65 8.0 14.5 0.00 0.00 0.00 63 1017.6
20260507123056 3 56 6.4 16.1 0.00 0.00 0.00 70 1017.3
20260507121540 2 87 12.9 19.3 0.00 0.00 0.00 71 1017.0
20260507120016 3 48 9.7 19.3 0.00 0.00 0.00 70 1017.0
20260507114552 3 64 9.7 19.3 0.00 0.00 0.00 68 1017.1
20260507113038 3 86 9.7 19.3 0.00 0.00 0.00 67 1017.0
20260507111516 3 73 12.9 20.9 0.00 0.00 0.00 65 1017.2
20260507110050 3 31 9.7 20.9 0.00 0.00 0.00 64 1017.2
20260507104526 3 46 11.3 22.5 0.00 0.00 0.00 60 1017.2
20260507103008 3 63 9.7 19.3 0.00 0.00 0.00 53 1017.3
20260507101549 4 86 8.0 16.1 0.00 0.00 0.00 50 1017.3
20260507100031 4 107 8.0 16.1 0.00 0.00 0.00 43 1017.0
20260507094600 4 78 3.2 19.3 0.00 0.00 0.00 41 1016.9
20260507094501 4 69 4.8 19.3 0.00 0.00 0.00 41 1016.8
20260507093039 3 55 9.7 16.1 0.00 0.00 0.00 38 1016.7
20260507091517 4 67 4.8 12.9 0.00 0.00 0.00 38 1016.8
20260507090054 5 67 6.4 11.3 0.00 0.00 0.00 37 1016.9
20260507084533 5 70 9.7 16.1 0.00 0.00 0.00 36 1016.8
20260507083032 6 51 9.7 19.3 0.00 0.00 0.00 34 1016.7
20260507081547 6 38 9.7 19.3 0.00 0.00 0.00 32 1016.4
20260507080030 6 26 11.3 17.7 0.00 0.00 0.00 31 1016.5